Showing default

LEMUR-2 WOBLER, 67368

Orbit data source: Space-Track

LEMUR-2 WOBLER, 67368 is a payload satellite owned by Spire/Lux (US) in SSO that was launched on Sun, 11 Jan 2026 UTC via an FALCON 9 launch vehicle from the Air Force Western Test Range (AFWTR). Payload-class satellites include a variety of spacecraft equipped with specific instruments for various scientific and technological missions. These include communications satellites like Starlink; space stations such as the ISS; scientific satellites like the Hubble; Earth observation satellites from companies like Planet Labs, Umbra, and HawkEye 360; GPS; miniature CubeSats for education and research; and military/defense satellites.

Loading next visibility...
Identifier
67368, 2026-004F
Orbit
SSO
Country
Flag of USUS
Related business
Manufacturer
Spire/Glasgow
Mission
Operational spacecraft
Bus & Motor
CUBESAT 3U, Unknown motor
Mass
4.6 kg wet, 4.6 kg dry
Launch date (UTC)
2026-01-11 (3 months ago)
Launch vehicle
FALCON 9
Launch site
Air Force Western Test Range (AFWTR)
Object type
Payload
Rocket body
Debris
Shape & HBR
Unknown shape, 14.5 m
Radar Cross Section
RCS unknown

Expand to show TLE details & history
Last TLE update: 6 hours ago

TLE from 6 hours ago
0 LEMUR-2 WOBLER
1 67368U 26004F   26095.56365218  .00006183  00000-0  67916-3 0  9990
2 67368  97.8052  95.3290 0008680  23.9021 336.2597 14.87982450 12499
Epoch: 2026-04-05T13:31Z
TLE epoch observation values (Epoch: 2026-04-05T13:31:39.548Z)
Latitude
-0.00001°
Longitude
58.54694°
Altitude
601.727 km
Speed
7.562 km/s
True Right ascension
06h 21m 18s
True Declination
0° 00' 00"
Sunlit
Object was in daylight at epoch
Visualization orbit readout
Latitude
Unknown
Longitude
Unknown
Altitude
Unknown
Speed
Unknown
Apparent Right ascension
Unknown
Apparent Declination
Unknown
Sunlit
N/A
Visualization observer readout
Local Sidereal Time
00:59:53
Azimuth
Unknown
Elevation
Unknown
Doppler factor
Unknown
Orbital elements
Apogee altitude
607.324 km
Perigee altitude
595.208 km
Semi-major axis
6,979.403 km
Eccentricity
0.00087
Inclination
97.8052°
RAAN
95.329°
Arg. of periapsis
23.9021°
True anomaly
336.21962°
Mean anomaly
336.2597°
Eccentric anomaly
336.23966°
Mean motion
3.72234 °/min
Orbital period
96.71 mins
BSTAR
0.00067916
Loading maneuver chart data...
Computing Atmospheric mass density...
Loading historical data...
Loading historical data...
Loading historical data...
Loading historical data...
Loading historical data...
Loading historical data...
Loading historical data...

Documentation

Showing up to 5 results
|